TimeEST,TemperatureF,Dew PointF,Humidity,Sea Level PressureIn,VisibilityMPH,Wind Direction,Wind SpeedMPH,Gust SpeedMPH,PrecipitationIn,Events,Conditions,WindDirDegrees,DateUTC
12:56 AM,57.9,54.0,87,29.73,10.0,WSW,6.9,-,N/A,,Mostly Cloudy,240,2012-12-18 05:56:00
1:56 AM,57.9,54.0,87,29.73,10.0,WSW,4.6,-,N/A,,Clear,240,2012-12-18 06:56:00
2:56 AM,59.0,54.0,83,29.74,10.0,WSW,8.1,-,N/A,,Mostly Cloudy,250,2012-12-18 07:56:00
3:56 AM,57.9,54.0,87,29.72,10.0,SW,9.2,-,N/A,,Clear,230,2012-12-18 08:56:00
4:56 AM,57.0,53.1,87,29.72,10.0,SW,4.6,-,N/A,,Clear,230,2012-12-18 09:56:00
5:56 AM,55.9,53.1,90,29.74,10.0,WSW,5.8,-,N/A,,Clear,240,2012-12-18 10:56:00
6:56 AM,55.0,51.1,86,29.74,10.0,SW,4.6,-,0.01,,Clear,220,2012-12-18 11:56:00
7:56 AM,55.9,52.0,87,29.74,10.0,SW,6.9,-,N/A,,Clear,230,2012-12-18 12:56:00
8:56 AM,57.9,53.1,84,29.75,10.0,WSW,8.1,-,N/A,,Scattered Clouds,240,2012-12-18 13:56:00
9:26 AM,59.0,53.6,82,29.75,10.0,West,9.2,-,N/A,,Overcast,260,2012-12-18 14:26:00
9:56 AM,59.0,53.1,81,29.77,10.0,West,10.4,-,N/A,,Mostly Cloudy,260,2012-12-18 14:56:00
10:18 AM,60.8,53.6,77,29.75,10.0,WSW,12.7,17.3,N/A,,Overcast,250,2012-12-18 15:18:00
10:56 AM,61.0,53.1,75,29.75,10.0,West,13.8,-,N/A,,Mostly Cloudy,270,2012-12-18 15:56:00
11:56 AM,64.0,51.1,63,29.71,10.0,WSW,12.7,19.6,N/A,,Scattered Clouds,250,2012-12-18 16:56:00
12:56 PM,64.0,45.0,50,29.70,10.0,West,18.4,27.6,N/A,,Scattered Clouds,260,2012-12-18 17:56:00
1:56 PM,63.0,46.0,54,29.70,10.0,West,13.8,-,N/A,,Scattered Clouds,270,2012-12-18 18:56:00
2:56 PM,64.9,46.0,50,29.70,10.0,West,16.1,24.2,N/A,,Scattered Clouds,260,2012-12-18 19:56:00
3:56 PM,63.0,45.0,52,29.73,10.0,WNW,19.6,26.5,N/A,,Scattered Clouds,290,2012-12-18 20:56:00
4:56 PM,60.1,46.0,60,29.78,10.0,WNW,13.8,-,N/A,,Clear,290,2012-12-18 21:56:00
5:56 PM,57.0,42.1,57,29.81,10.0,WNW,10.4,-,N/A,,Clear,290,2012-12-18 22:56:00
6:56 PM,54.0,39.0,57,29.84,10.0,West,9.2,-,N/A,,Clear,280,2012-12-18 23:56:00
7:56 PM,52.0,37.9,59,29.88,10.0,West,8.1,-,N/A,,Clear,280,2012-12-19 00:56:00
8:56 PM,50.0,37.9,63,29.91,10.0,WSW,6.9,-,N/A,,Clear,250,2012-12-19 01:56:00
9:56 PM,46.9,37.0,68,29.94,10.0,West,5.8,-,N/A,,Clear,270,2012-12-19 02:56:00
10:56 PM,44.1,36.0,73,29.95,10.0,West,5.8,-,N/A,,Clear,270,2012-12-19 03:56:00
11:56 PM,44.1,36.0,73,29.94,10.0,West,5.8,-,N/A,,Clear,260,2012-12-19 04:56:00